STARLINK-32477, 62038

Orbit data source: Space-Track

STARLINK-32477, 62038 is a payload satellite owned by SpaceX/Seattle (US) in LEO that was launched on Thu, 21 Nov 2024 UTC via an FALCON 9 launch vehicle from the Air Force Eastern Test Range (AFETR). Payload-class satellites include a variety of spacecraft equipped with specific instruments for various scientific and technological missions. These include communications satellites like Starlink; space stations such as the ISS; scientific satellites like the Hubble; Earth observation satellites from companies like Planet Labs, Umbra, and HawkEye 360; GPS; miniature CubeSats for education and research; and military/defense satellites.

Loading next visibility...
Identifier
62038, 2024-216G
Orbit
LEO
Country
Flag of USUS
Related business
Manufacturer
SpaceX/Seattle
Mission
Partially operational Commercial Communications
Bus & Motor
STARLINK V2M, Unknown motor
Mass
730 kg wet, ~700 kg dry
Launch date (UTC)
2024-11-21 (1 year ago)
Launch vehicle
FALCON 9
Launch site
Air Force Eastern Test Range (AFETR)
Object type
Payload
Rocket body
Debris
Shape & HBR
Box + 2 Pan, 17.7 m
Radar Cross Section
33.884 m², Large (>1 m²)

Expand to show TLE details & history
Last TLE update: 9 hours ago

TLE from 9 hours ago
0 STARLINK-32477
1 62038U 24216G   26107.15345980  .00099929  00000-0  17108-2 0  9992
2 62038  42.9942  27.3403 0020109 205.5858 154.4008 15.49972847 78738
Epoch: 2026-04-17T03:40Z
TLE epoch observation values (Epoch: 2026-04-17T03:40:58.926Z)
Latitude
-0.00003°
Longitude
126.80401°
Altitude
428.904 km
Speed
7.649 km/s
True Right ascension
01h 49m 21s
True Declination
0° 00' 00"
Sunlit
Object was in daylight at epoch
Visualization orbit readout
Latitude
Unknown
Longitude
Unknown
Altitude
Unknown
Speed
Unknown
Apparent Right ascension
Unknown
Apparent Declination
Unknown
Sunlit
N/A
Visualization observer readout
Local Sidereal Time
19:24:45
Azimuth
Unknown
Elevation
Unknown
Doppler factor
Unknown
Orbital elements
Apogee altitude
432.438 km
Perigee altitude
405.103 km
Semi-major axis
6,796.907 km
Eccentricity
0.00201
Inclination
42.9942°
RAAN
27.3403°
Arg. of periapsis
205.5858°
True anomaly
154.50014°
Mean anomaly
154.4008°
Eccentric anomaly
154.45049°
Mean motion
3.87326 °/min
Orbital period
92.95 mins
BSTAR
0.0017108
Loading maneuver chart data...
Computing Atmospheric mass density...
Loading historical data...
Loading historical data...
Loading historical data...
Loading historical data...
Loading historical data...
Loading historical data...
Loading historical data...

Documentation

Showing up to 5 results
|